Year,Month,Day,Hour,Minute,Value (Times are PST for temperature in C)
2017,09,02,00,00,20.00
2017,09,02,00,01,20.00
2017,09,02,00,02,20.00
2017,09,02,00,03,20.00
2017,09,02,00,04,20.00
2017,09,02,00,05,19.90
2017,09,02,00,06,19.90
2017,09,02,00,07,19.90
2017,09,02,00,08,19.90
2017,09,02,00,09,19.90
2017,09,02,00,10,19.90
2017,09,02,00,11,19.90
2017,09,02,00,12,19.90
2017,09,02,00,13,19.90
2017,09,02,00,14,19.80
2017,09,02,00,15,19.80
2017,09,02,00,16,19.80
2017,09,02,00,17,19.80
2017,09,02,00,18,19.80
2017,09,02,00,19,19.80
2017,09,02,00,20,19.70
2017,09,02,00,21,19.70
2017,09,02,00,22,19.70
2017,09,02,00,23,19.70
2017,09,02,00,24,19.60
2017,09,02,00,25,19.60
2017,09,02,00,26,19.60
2017,09,02,00,27,19.50
2017,09,02,00,28,19.50
2017,09,02,00,29,19.40
2017,09,02,00,30,19.40
2017,09,02,00,31,19.40
2017,09,02,00,32,19.40
2017,09,02,00,33,19.30
2017,09,02,00,34,19.30
2017,09,02,00,35,19.30
2017,09,02,00,36,19.30
2017,09,02,00,37,19.20
2017,09,02,00,38,19.20
2017,09,02,00,39,19.20
2017,09,02,00,40,19.10
2017,09,02,00,41,19.10
2017,09,02,00,42,19.10
2017,09,02,00,43,19.00
2017,09,02,00,44,19.00
2017,09,02,00,45,18.90
2017,09,02,00,46,18.90
2017,09,02,00,47,18.90
2017,09,02,00,48,18.80
2017,09,02,00,49,18.80
2017,09,02,00,50,18.80
2017,09,02,00,51,18.80
2017,09,02,00,52,18.80
2017,09,02,00,53,18.70
2017,09,02,00,54,18.70
2017,09,02,00,55,18.70
2017,09,02,00,56,18.70
2017,09,02,00,57,18.60
2017,09,02,00,58,18.60
2017,09,02,00,59,18.60
2017,09,02,01,00,18.60
2017,09,02,01,01,18.50
2017,09,02,01,02,18.50
2017,09,02,01,03,18.40
2017,09,02,01,04,18.40
2017,09,02,01,05,18.40
2017,09,02,01,06,18.40
2017,09,02,01,07,18.30
2017,09,02,01,08,18.30
2017,09,02,01,09,18.30
2017,09,02,01,10,18.30
2017,09,02,01,11,18.30
2017,09,02,01,12,18.30
2017,09,02,01,13,18.30
2017,09,02,01,14,18.30
2017,09,02,01,15,18.20
2017,09,02,01,16,18.20
2017,09,02,01,17,18.20
2017,09,02,01,18,18.20
2017,09,02,01,19,18.20
2017,09,02,01,20,18.20
2017,09,02,01,21,18.10
2017,09,02,01,22,18.10
2017,09,02,01,23,18.10
2017,09,02,01,24,18.10
2017,09,02,01,25,18.10
2017,09,02,01,26,18.10
2017,09,02,01,27,18.00
2017,09,02,01,28,18.00
2017,09,02,01,29,18.00
2017,09,02,01,30,17.90
2017,09,02,01,31,17.90
2017,09,02,01,32,17.90
2017,09,02,01,33,17.90
2017,09,02,01,34,17.90
2017,09,02,01,35,17.80
2017,09,02,01,36,17.80
2017,09,02,01,37,17.80
2017,09,02,01,38,17.80
2017,09,02,01,39,17.80
2017,09,02,01,40,17.70
2017,09,02,01,41,17.70
2017,09,02,01,42,17.70
2017,09,02,01,43,17.70
2017,09,02,01,44,17.70
2017,09,02,01,45,17.60
2017,09,02,01,46,17.60
2017,09,02,01,47,17.60
2017,09,02,01,48,17.60
2017,09,02,01,49,17.60
2017,09,02,01,50,17.60
2017,09,02,01,51,17.60
2017,09,02,01,52,17.60
2017,09,02,01,53,17.60
2017,09,02,01,54,17.50
2017,09,02,01,55,17.50
2017,09,02,01,56,17.50
2017,09,02,01,57,17.50
2017,09,02,01,58,17.50
2017,09,02,01,59,17.40
2017,09,02,02,00,17.40
2017,09,02,02,01,17.40
2017,09,02,02,02,17.40
2017,09,02,02,03,17.40
2017,09,02,02,04,17.50
2017,09,02,02,05,17.50
2017,09,02,02,06,17.60
2017,09,02,02,07,17.70
2017,09,02,02,08,17.80
2017,09,02,02,09,17.90
2017,09,02,02,10,18.00
2017,09,02,02,11,18.00
2017,09,02,02,12,18.10
2017,09,02,02,13,18.10
2017,09,02,02,14,18.20
2017,09,02,02,15,18.30
2017,09,02,02,16,18.30
2017,09,02,02,17,18.40
2017,09,02,02,18,18.50
2017,09,02,02,19,18.50
2017,09,02,02,20,18.60
2017,09,02,02,21,18.60
2017,09,02,02,22,18.60
2017,09,02,02,23,18.60
2017,09,02,02,24,18.70
2017,09,02,02,25,18.70
2017,09,02,02,26,18.70
2017,09,02,02,27,18.70
2017,09,02,02,28,18.60
2017,09,02,02,29,18.60
2017,09,02,02,30,18.60
2017,09,02,02,31,18.60
2017,09,02,02,32,18.60
2017,09,02,02,33,18.60
2017,09,02,02,34,18.60
2017,09,02,02,35,18.50
2017,09,02,02,36,18.50
2017,09,02,02,37,18.40
2017,09,02,02,38,18.40
2017,09,02,02,39,18.40
2017,09,02,02,40,18.40
2017,09,02,02,41,18.30
2017,09,02,02,42,18.30
2017,09,02,02,43,18.30
2017,09,02,02,44,18.30
2017,09,02,02,45,18.20
2017,09,02,02,46,18.20
2017,09,02,02,47,18.20
2017,09,02,02,48,18.10
2017,09,02,02,49,18.10
2017,09,02,02,50,18.10
2017,09,02,02,51,18.00
2017,09,02,02,52,17.90
2017,09,02,02,53,17.90
2017,09,02,02,54,17.90
2017,09,02,02,55,17.80
2017,09,02,02,56,17.80
2017,09,02,02,57,17.70
2017,09,02,02,58,17.70
2017,09,02,02,59,17.70
2017,09,02,03,00,17.60
2017,09,02,03,01,17.60
2017,09,02,03,02,17.60
2017,09,02,03,03,17.50
2017,09,02,03,04,17.50
2017,09,02,03,05,17.50
2017,09,02,03,06,17.50
2017,09,02,03,07,17.50
2017,09,02,03,08,17.40
2017,09,02,03,09,17.40
2017,09,02,03,10,17.40
2017,09,02,03,11,17.40
2017,09,02,03,12,17.40
2017,09,02,03,13,17.40
2017,09,02,03,14,17.40
2017,09,02,03,15,17.30
2017,09,02,03,16,17.30
2017,09,02,03,17,17.30
2017,09,02,03,18,17.30
2017,09,02,03,19,17.30
2017,09,02,03,20,17.30
2017,09,02,03,21,17.30
2017,09,02,03,22,17.30
2017,09,02,03,23,17.30
2017,09,02,03,24,17.20
2017,09,02,03,25,17.30
2017,09,02,03,26,17.30
2017,09,02,03,27,17.30
2017,09,02,03,28,17.30
2017,09,02,03,29,17.30
2017,09,02,03,30,17.30
2017,09,02,03,31,17.30
2017,09,02,03,32,17.30
2017,09,02,03,33,17.30
2017,09,02,03,34,17.30
2017,09,02,03,35,17.30
2017,09,02,03,36,17.30
2017,09,02,03,37,17.30
2017,09,02,03,38,17.30
2017,09,02,03,39,17.30
2017,09,02,03,40,17.30
2017,09,02,03,41,17.40
2017,09,02,03,42,17.40
2017,09,02,03,43,17.40
2017,09,02,03,44,17.40
2017,09,02,03,45,17.40
2017,09,02,03,46,17.40
2017,09,02,03,47,17.40
2017,09,02,03,48,17.50
2017,09,02,03,49,17.50
2017,09,02,03,50,17.50
2017,09,02,03,51,17.50
2017,09,02,03,52,17.40
2017,09,02,03,53,17.40
2017,09,02,03,54,17.40
2017,09,02,03,55,17.40
2017,09,02,03,56,17.40
2017,09,02,03,57,17.40
2017,09,02,03,58,17.40
2017,09,02,03,59,17.40
2017,09,02,04,00,17.40
2017,09,02,04,01,17.40
2017,09,02,04,02,17.30
2017,09,02,04,03,17.30
2017,09,02,04,04,17.30
2017,09,02,04,05,17.30
2017,09,02,04,06,17.30
2017,09,02,04,07,17.30
2017,09,02,04,08,17.30
2017,09,02,04,09,17.30
2017,09,02,04,10,17.30
2017,09,02,04,11,17.20
2017,09,02,04,12,17.20
2017,09,02,04,13,17.20
2017,09,02,04,14,17.20
2017,09,02,04,15,17.20
2017,09,02,04,16,17.20
2017,09,02,04,17,17.20
2017,09,02,04,18,17.20
2017,09,02,04,19,17.20
2017,09,02,04,20,17.20
2017,09,02,04,21,17.20
2017,09,02,04,22,17.20
2017,09,02,04,23,17.20
2017,09,02,04,24,17.20
2017,09,02,04,25,17.20
2017,09,02,04,26,17.20
2017,09,02,04,27,17.20
2017,09,02,04,28,17.20
2017,09,02,04,29,17.20
2017,09,02,04,30,17.20
2017,09,02,04,31,17.20
2017,09,02,04,32,17.20
2017,09,02,04,33,17.20
2017,09,02,04,34,17.20
2017,09,02,04,35,17.20
2017,09,02,04,36,17.20
2017,09,02,04,37,17.10
2017,09,02,04,38,17.10
2017,09,02,04,39,17.10
2017,09,02,04,40,17.10
2017,09,02,04,41,17.10
2017,09,02,04,42,17.10
2017,09,02,04,43,17.10
2017,09,02,04,44,17.10
2017,09,02,04,45,17.00
2017,09,02,04,46,17.00
2017,09,02,04,47,17.00
2017,09,02,04,48,17.00
2017,09,02,04,49,16.90
2017,09,02,04,50,16.90
2017,09,02,04,51,16.90
2017,09,02,04,52,16.90
2017,09,02,04,53,16.90
2017,09,02,04,54,16.90
2017,09,02,04,55,16.90
2017,09,02,04,56,16.80
2017,09,02,04,57,16.80
2017,09,02,04,58,16.80
2017,09,02,04,59,16.80
2017,09,02,05,00,16.80
2017,09,02,05,01,16.70
2017,09,02,05,02,16.70
2017,09,02,05,03,16.70
2017,09,02,05,04,16.70
2017,09,02,05,05,16.70
2017,09,02,05,06,16.60
2017,09,02,05,07,16.60
2017,09,02,05,08,16.60
2017,09,02,05,09,16.60
2017,09,02,05,10,16.50
2017,09,02,05,11,16.50
2017,09,02,05,12,16.50
2017,09,02,05,13,16.40
2017,09,02,05,14,16.40
2017,09,02,05,15,16.40
2017,09,02,05,16,16.30
2017,09,02,05,17,16.30
2017,09,02,05,18,16.30
2017,09,02,05,19,16.30
2017,09,02,05,20,16.30
2017,09,02,05,21,16.20
2017,09,02,05,22,16.20
2017,09,02,05,23,16.20
2017,09,02,05,24,16.20
2017,09,02,05,25,16.20
2017,09,02,05,26,16.10
2017,09,02,05,27,16.10
2017,09,02,05,28,16.10
2017,09,02,05,29,16.10
2017,09,02,05,30,16.00
2017,09,02,05,31,16.00
2017,09,02,05,32,16.00
2017,09,02,05,33,15.90
2017,09,02,05,34,15.90
2017,09,02,05,35,15.90
2017,09,02,05,36,15.90
2017,09,02,05,37,15.90
2017,09,02,05,38,15.90
2017,09,02,05,39,15.80
2017,09,02,05,40,15.80
2017,09,02,05,41,15.80
2017,09,02,05,42,15.80
2017,09,02,05,43,15.80
2017,09,02,05,44,15.80
2017,09,02,05,45,15.80
2017,09,02,05,46,15.80
2017,09,02,05,47,15.80
2017,09,02,05,48,15.80
2017,09,02,05,49,15.80
2017,09,02,05,50,15.80
2017,09,02,05,51,15.80
2017,09,02,05,52,15.80
2017,09,02,05,53,15.80
2017,09,02,05,54,15.70
2017,09,02,05,55,15.80
2017,09,02,05,56,15.80
2017,09,02,05,57,15.80
2017,09,02,05,58,15.80
2017,09,02,05,59,15.80
2017,09,02,06,00,15.80
2017,09,02,06,01,15.80
2017,09,02,06,02,15.80
2017,09,02,06,03,15.80
2017,09,02,06,04,15.80
2017,09,02,06,05,15.80
2017,09,02,06,06,15.80
2017,09,02,06,07,15.80
2017,09,02,06,08,15.80
2017,09,02,06,09,15.80
2017,09,02,06,10,15.80
2017,09,02,06,11,15.80
2017,09,02,06,12,15.80
2017,09,02,06,13,15.80
2017,09,02,06,14,15.80
2017,09,02,06,15,15.80
2017,09,02,06,16,15.80
2017,09,02,06,17,15.80
2017,09,02,06,18,15.80
2017,09,02,06,19,15.70
2017,09,02,06,20,15.70
2017,09,02,06,21,15.70
2017,09,02,06,22,15.70
2017,09,02,06,23,15.70
2017,09,02,06,24,15.70
2017,09,02,06,25,15.70
2017,09,02,06,26,15.70
2017,09,02,06,27,15.70
2017,09,02,06,28,15.70
2017,09,02,06,29,15.70
2017,09,02,06,30,15.70
2017,09,02,06,31,15.70
2017,09,02,06,32,15.70
2017,09,02,06,33,15.70
2017,09,02,06,34,15.70
2017,09,02,06,35,15.70
2017,09,02,06,36,15.70
2017,09,02,06,37,15.70
2017,09,02,06,38,15.70
2017,09,02,06,39,15.70
2017,09,02,06,40,15.70
2017,09,02,06,41,15.70
2017,09,02,06,42,15.70
2017,09,02,06,43,15.70
2017,09,02,06,44,15.70
2017,09,02,06,45,15.70
2017,09,02,06,46,15.70
2017,09,02,06,47,15.70
2017,09,02,06,48,15.70
2017,09,02,06,49,15.80
2017,09,02,06,50,15.80
2017,09,02,06,51,15.80
2017,09,02,06,52,15.80
2017,09,02,06,53,15.80
2017,09,02,06,54,15.80
2017,09,02,06,55,15.80
2017,09,02,06,56,15.80
2017,09,02,06,57,15.80
2017,09,02,06,58,15.80
2017,09,02,06,59,15.90
2017,09,02,07,00,15.90
2017,09,02,07,01,15.90
2017,09,02,07,02,15.90
2017,09,02,07,03,15.90
2017,09,02,07,04,15.90
2017,09,02,07,05,15.90
2017,09,02,07,06,15.90
2017,09,02,07,07,15.90
2017,09,02,07,08,15.90
2017,09,02,07,09,15.90
2017,09,02,07,10,15.90
2017,09,02,07,11,15.90
2017,09,02,07,12,15.90
2017,09,02,07,13,15.90
2017,09,02,07,14,15.90
2017,09,02,07,15,16.00
2017,09,02,07,16,16.00
2017,09,02,07,17,16.00
2017,09,02,07,18,16.00
2017,09,02,07,19,16.00
2017,09,02,07,20,16.10
2017,09,02,07,21,16.20
2017,09,02,07,22,16.20
2017,09,02,07,23,16.20
2017,09,02,07,24,16.30
2017,09,02,07,25,16.40
2017,09,02,07,26,16.40
2017,09,02,07,27,16.50
2017,09,02,07,28,16.50
2017,09,02,07,29,16.60
2017,09,02,07,30,16.70
2017,09,02,07,31,16.70
2017,09,02,07,32,16.80
2017,09,02,07,33,16.80
2017,09,02,07,34,16.80
2017,09,02,07,35,16.80
2017,09,02,07,36,16.80
2017,09,02,07,37,16.90
2017,09,02,07,38,16.90
2017,09,02,07,39,16.90
2017,09,02,07,40,17.00
2017,09,02,07,41,17.00
2017,09,02,07,42,17.10
2017,09,02,07,43,17.10
2017,09,02,07,44,17.10
2017,09,02,07,45,17.10
2017,09,02,07,46,17.20
2017,09,02,07,47,17.20
2017,09,02,07,48,17.20
2017,09,02,07,49,17.30
2017,09,02,07,50,17.30
2017,09,02,07,51,17.30
2017,09,02,07,52,17.40
2017,09,02,07,53,17.40
2017,09,02,07,54,17.40
2017,09,02,07,55,17.50
2017,09,02,07,56,17.60
2017,09,02,07,57,17.60
2017,09,02,07,58,17.70
2017,09,02,07,59,17.70
2017,09,02,08,00,17.80
2017,09,02,08,01,17.90
2017,09,02,08,02,18.00
2017,09,02,08,03,18.10
2017,09,02,08,04,18.10
2017,09,02,08,05,18.20
2017,09,02,08,06,18.30
2017,09,02,08,07,18.40
2017,09,02,08,08,18.50
2017,09,02,08,09,18.60
2017,09,02,08,10,18.60
2017,09,02,08,11,18.70
2017,09,02,08,12,18.80
2017,09,02,08,13,18.80
2017,09,02,08,14,18.90
2017,09,02,08,15,19.00
2017,09,02,08,16,19.00
2017,09,02,08,17,19.10
2017,09,02,08,18,19.20
2017,09,02,08,19,19.30
2017,09,02,08,20,19.30
2017,09,02,08,21,19.40
2017,09,02,08,22,19.50
2017,09,02,08,23,19.50
2017,09,02,08,24,19.60
2017,09,02,08,25,19.60
2017,09,02,08,26,19.70
2017,09,02,08,27,19.80
2017,09,02,08,28,19.80
2017,09,02,08,29,19.90
2017,09,02,08,30,19.90
2017,09,02,08,31,20.00
2017,09,02,08,32,20.00
2017,09,02,08,33,20.00
2017,09,02,08,34,20.10
2017,09,02,08,35,20.10
2017,09,02,08,36,20.20
2017,09,02,08,37,20.20
2017,09,02,08,38,20.30
2017,09,02,08,39,20.30
2017,09,02,08,40,20.40
2017,09,02,08,41,20.50
2017,09,02,08,42,20.50
2017,09,02,08,43,20.60
2017,09,02,08,44,20.60
2017,09,02,08,45,20.70
2017,09,02,08,46,20.70
2017,09,02,08,47,20.80
2017,09,02,08,48,20.90
2017,09,02,08,49,20.90
2017,09,02,08,50,20.90
2017,09,02,08,51,21.00
2017,09,02,08,52,21.10
2017,09,02,08,53,21.10
2017,09,02,08,54,21.10
2017,09,02,08,55,21.20
2017,09,02,08,56,21.20
2017,09,02,08,57,21.20
2017,09,02,08,58,21.30
2017,09,02,08,59,21.30
2017,09,02,09,00,21.30
2017,09,02,09,01,21.30
2017,09,02,09,02,21.30
2017,09,02,09,03,21.30
2017,09,02,09,04,21.40
2017,09,02,09,05,21.30
2017,09,02,09,06,21.30
2017,09,02,09,07,21.30
2017,09,02,09,08,21.30
2017,09,02,09,09,21.30
2017,09,02,09,10,21.30
2017,09,02,09,11,21.30
2017,09,02,09,12,21.30
2017,09,02,09,13,21.30
2017,09,02,09,14,21.30
2017,09,02,09,15,21.30
2017,09,02,09,16,21.20
2017,09,02,09,17,21.20
2017,09,02,09,18,21.30
2017,09,02,09,19,21.30
2017,09,02,09,20,21.40
2017,09,02,09,21,21.50
2017,09,02,09,22,21.50
2017,09,02,09,23,21.60
2017,09,02,09,24,21.60
2017,09,02,09,25,21.70
2017,09,02,09,26,21.70
2017,09,02,09,27,21.70
2017,09,02,09,28,21.70
2017,09,02,09,29,21.80
2017,09,02,09,30,21.70
2017,09,02,09,31,21.80
2017,09,02,09,32,21.80
2017,09,02,09,33,21.80
2017,09,02,09,34,21.80
2017,09,02,09,35,21.80
2017,09,02,09,36,21.80
2017,09,02,09,37,21.80
2017,09,02,09,38,21.90
2017,09,02,09,39,21.90
2017,09,02,09,40,22.00
2017,09,02,09,41,22.00
2017,09,02,09,42,22.10
2017,09,02,09,43,22.10
2017,09,02,09,44,22.20
2017,09,02,09,45,22.20
2017,09,02,09,46,22.30
2017,09,02,09,47,22.30
2017,09,02,09,48,22.30
2017,09,02,09,49,22.30
2017,09,02,09,50,22.20
2017,09,02,09,51,22.20
2017,09,02,09,52,22.10
2017,09,02,09,53,22.10
2017,09,02,09,54,22.10
2017,09,02,09,55,22.10
2017,09,02,09,56,22.10
2017,09,02,09,57,22.10
2017,09,02,09,58,22.10
2017,09,02,09,59,22.20
2017,09,02,10,00,22.20
2017,09,02,10,01,22.20
2017,09,02,10,02,22.20
2017,09,02,10,03,22.30
2017,09,02,10,04,22.30
2017,09,02,10,05,22.40
2017,09,02,10,06,22.40
2017,09,02,10,07,22.50
2017,09,02,10,08,22.60
2017,09,02,10,09,22.60
2017,09,02,10,10,22.70
2017,09,02,10,11,22.70
2017,09,02,10,12,22.80
2017,09,02,10,13,22.80
2017,09,02,10,14,22.80
2017,09,02,10,15,22.90
2017,09,02,10,16,22.90
2017,09,02,10,17,22.90
2017,09,02,10,18,22.80
2017,09,02,10,19,22.70
2017,09,02,10,20,22.60
2017,09,02,10,21,22.50
2017,09,02,10,22,22.30
2017,09,02,10,23,22.20
2017,09,02,10,24,22.10
2017,09,02,10,25,22.00
2017,09,02,10,26,21.90
2017,09,02,10,27,21.90
2017,09,02,10,28,22.00
2017,09,02,10,29,22.00
2017,09,02,10,30,22.10
2017,09,02,10,31,22.20
2017,09,02,10,32,22.30
2017,09,02,10,33,22.30
2017,09,02,10,34,22.30
2017,09,02,10,35,22.30
2017,09,02,10,36,22.40
2017,09,02,10,37,22.40
2017,09,02,10,38,22.50
2017,09,02,10,39,22.60
2017,09,02,10,40,22.60
2017,09,02,10,41,22.70
2017,09,02,10,42,22.80
2017,09,02,10,43,22.80
2017,09,02,10,44,22.90
2017,09,02,10,45,22.90
2017,09,02,10,46,22.90
2017,09,02,10,47,22.90
2017,09,02,10,48,22.90
2017,09,02,10,49,22.80
2017,09,02,10,50,22.80
2017,09,02,10,51,22.80
2017,09,02,10,52,22.90
2017,09,02,10,53,22.80
2017,09,02,10,54,22.70
2017,09,02,10,55,22.60
2017,09,02,10,56,22.40
2017,09,02,10,57,22.30
2017,09,02,10,58,22.20
2017,09,02,10,59,22.20
2017,09,02,11,00,22.20
2017,09,02,11,01,22.20
2017,09,02,11,02,22.30
2017,09,02,11,03,22.30
2017,09,02,11,04,22.40
2017,09,02,11,05,22.40
2017,09,02,11,06,22.30
2017,09,02,11,07,22.40
2017,09,02,11,08,22.40
2017,09,02,11,09,22.40
2017,09,02,11,10,22.40
2017,09,02,11,11,22.50
2017,09,02,11,12,22.60
2017,09,02,11,13,22.80
2017,09,02,11,14,22.90
2017,09,02,11,15,22.90
2017,09,02,11,16,22.90
2017,09,02,11,17,22.80
2017,09,02,11,18,22.80
2017,09,02,11,19,22.70
2017,09,02,11,20,22.80
2017,09,02,11,21,22.80
2017,09,02,11,22,22.90
2017,09,02,11,23,23.00
2017,09,02,11,24,23.10
2017,09,02,11,25,23.20
2017,09,02,11,26,23.10
2017,09,02,11,27,23.00
2017,09,02,11,28,22.90
2017,09,02,11,29,22.80
2017,09,02,11,30,22.80
2017,09,02,11,31,22.80
2017,09,02,11,32,22.80
2017,09,02,11,33,22.80
2017,09,02,11,34,22.80
2017,09,02,11,35,22.90
2017,09,02,11,36,22.90
2017,09,02,11,37,23.00
2017,09,02,11,38,23.00
2017,09,02,11,39,23.10
2017,09,02,11,40,23.10
2017,09,02,11,41,23.10
2017,09,02,11,42,23.10
2017,09,02,11,43,23.20
2017,09,02,11,44,23.30
2017,09,02,11,45,23.30
2017,09,02,11,46,23.40
2017,09,02,11,47,23.50
2017,09,02,11,48,23.60
2017,09,02,11,49,23.70
2017,09,02,11,50,23.70
2017,09,02,11,51,23.80
2017,09,02,11,52,23.80
2017,09,02,11,53,23.60
2017,09,02,11,54,23.60
2017,09,02,11,55,23.50
2017,09,02,11,56,23.60
2017,09,02,11,57,23.60
2017,09,02,11,58,23.70
2017,09,02,11,59,23.90
2017,09,02,12,00,24.00
2017,09,02,12,01,24.10
2017,09,02,12,02,24.20
2017,09,02,12,03,24.20
2017,09,02,12,04,24.20
2017,09,02,12,05,24.20
2017,09,02,12,06,24.30
2017,09,02,12,07,24.40
2017,09,02,12,08,24.40
2017,09,02,12,09,24.50
2017,09,02,12,10,24.50
2017,09,02,12,11,24.40
2017,09,02,12,12,24.50
2017,09,02,12,13,24.50
2017,09,02,12,14,24.60
2017,09,02,12,15,24.70
2017,09,02,12,16,24.80
2017,09,02,12,17,24.90
2017,09,02,12,18,25.00
2017,09,02,12,19,25.20
2017,09,02,12,20,25.30
2017,09,02,12,21,25.40
2017,09,02,12,22,25.50
2017,09,02,12,23,25.50
2017,09,02,12,24,25.60
2017,09,02,12,25,25.70
2017,09,02,12,26,25.80
2017,09,02,12,27,25.90
2017,09,02,12,28,26.10
2017,09,02,12,29,26.20
2017,09,02,12,30,26.30
2017,09,02,12,31,26.40
2017,09,02,12,32,26.50
2017,09,02,12,33,26.50
2017,09,02,12,34,26.60
2017,09,02,12,35,26.60
2017,09,02,12,36,26.60
2017,09,02,12,37,26.60
2017,09,02,12,38,26.70
2017,09,02,12,39,26.80
2017,09,02,12,40,26.80
2017,09,02,12,41,26.80
2017,09,02,12,42,26.70
2017,09,02,12,43,26.70
2017,09,02,12,44,26.70
2017,09,02,12,45,26.70
2017,09,02,12,46,26.70
2017,09,02,12,47,26.80
2017,09,02,12,48,26.90
2017,09,02,12,49,26.90
2017,09,02,12,50,27.00
2017,09,02,12,51,27.00
2017,09,02,12,52,27.00
2017,09,02,12,53,27.00
2017,09,02,12,54,27.00
2017,09,02,12,55,26.90
2017,09,02,12,56,26.90
2017,09,02,12,57,26.90
2017,09,02,12,58,26.80
2017,09,02,12,59,26.70
2017,09,02,13,00,26.50
2017,09,02,13,01,26.30
2017,09,02,13,02,26.20
2017,09,02,13,03,26.20
2017,09,02,13,04,26.20
2017,09,02,13,05,26.20
2017,09,02,13,06,26.20
2017,09,02,13,07,26.20
2017,09,02,13,08,26.20
2017,09,02,13,09,26.20
2017,09,02,13,10,26.20
2017,09,02,13,11,26.20
2017,09,02,13,12,26.20
2017,09,02,13,13,26.20
2017,09,02,13,14,26.30
2017,09,02,13,15,26.30
2017,09,02,13,16,26.40
2017,09,02,13,17,26.40
2017,09,02,13,18,26.40
2017,09,02,13,19,26.50
2017,09,02,13,20,26.60
2017,09,02,13,21,26.70
2017,09,02,13,22,26.70
2017,09,02,13,23,26.70
2017,09,02,13,24,26.80
2017,09,02,13,25,26.80
2017,09,02,13,26,26.80
2017,09,02,13,27,26.90
2017,09,02,13,28,27.00
2017,09,02,13,29,27.00
2017,09,02,13,30,27.00
2017,09,02,13,31,27.10
2017,09,02,13,32,27.10
2017,09,02,13,33,27.20
2017,09,02,13,34,27.30
2017,09,02,13,35,27.30
2017,09,02,13,36,27.30
2017,09,02,13,37,27.30
2017,09,02,13,38,27.30
2017,09,02,13,39,27.20
2017,09,02,13,40,27.30
2017,09,02,13,41,27.30
2017,09,02,13,42,27.30
2017,09,02,13,43,27.40
2017,09,02,13,44,27.40
2017,09,02,13,45,27.40
2017,09,02,13,46,27.40
2017,09,02,13,47,27.40
2017,09,02,13,48,27.40
2017,09,02,13,49,27.40
2017,09,02,13,50,27.50
2017,09,02,13,51,27.50
2017,09,02,13,52,27.50
2017,09,02,13,53,27.60
2017,09,02,13,54,27.70
2017,09,02,13,55,27.70
2017,09,02,13,56,27.70
2017,09,02,13,57,27.60
2017,09,02,13,58,27.50
2017,09,02,13,59,27.50
2017,09,02,14,00,27.40
2017,09,02,14,01,27.50
2017,09,02,14,02,27.50
2017,09,02,14,03,27.50
2017,09,02,14,04,27.60
2017,09,02,14,05,27.60
2017,09,02,14,06,27.70
2017,09,02,14,07,27.70
2017,09,02,14,08,27.70
2017,09,02,14,09,27.70
2017,09,02,14,10,27.80
2017,09,02,14,11,27.80
2017,09,02,14,12,27.80
2017,09,02,14,13,27.90
2017,09,02,14,14,28.00
2017,09,02,14,15,28.00
2017,09,02,14,16,27.90
2017,09,02,14,17,27.90
2017,09,02,14,18,27.80
2017,09,02,14,19,27.70
2017,09,02,14,20,27.70
2017,09,02,14,21,27.70
2017,09,02,14,22,27.70
2017,09,02,14,23,27.60
2017,09,02,14,24,27.50
2017,09,02,14,25,27.30
2017,09,02,14,26,27.20
2017,09,02,14,27,27.20
2017,09,02,14,28,27.20
2017,09,02,14,29,27.20
2017,09,02,14,30,27.20
2017,09,02,14,31,27.20
2017,09,02,14,32,27.10
2017,09,02,14,33,27.10
2017,09,02,14,34,27.00
2017,09,02,14,35,27.00
2017,09,02,14,36,27.10
2017,09,02,14,37,27.10
2017,09,02,14,38,27.20
2017,09,02,14,39,27.30
2017,09,02,14,40,27.20
2017,09,02,14,41,27.30
2017,09,02,14,42,27.20
2017,09,02,14,43,27.20
2017,09,02,14,44,27.30
2017,09,02,14,45,27.30
2017,09,02,14,46,27.30
2017,09,02,14,47,27.30
2017,09,02,14,48,27.40
2017,09,02,14,49,27.40
2017,09,02,14,50,27.50
2017,09,02,14,51,27.50
2017,09,02,14,52,27.60
2017,09,02,14,53,27.70
2017,09,02,14,54,27.70
2017,09,02,14,55,27.70
2017,09,02,14,56,27.70
2017,09,02,14,57,27.70
2017,09,02,14,58,27.70
2017,09,02,14,59,27.60
2017,09,02,15,00,27.60
2017,09,02,15,01,27.70
2017,09,02,15,02,27.70
2017,09,02,15,03,27.80
2017,09,02,15,04,27.90
2017,09,02,15,05,28.00
2017,09,02,15,06,28.00
2017,09,02,15,07,27.90
2017,09,02,15,08,27.80
2017,09,02,15,09,27.80
2017,09,02,15,10,27.70
2017,09,02,15,11,27.70
2017,09,02,15,12,27.70
2017,09,02,15,13,27.70
2017,09,02,15,14,27.80
2017,09,02,15,15,27.80
2017,09,02,15,16,27.90
2017,09,02,15,17,28.00
2017,09,02,15,18,28.00
2017,09,02,15,19,28.10
2017,09,02,15,20,28.10
2017,09,02,15,21,28.10
2017,09,02,15,22,28.10
2017,09,02,15,23,28.10
2017,09,02,15,24,28.00
2017,09,02,15,25,28.00
2017,09,02,15,26,27.90
2017,09,02,15,27,27.90
2017,09,02,15,28,27.90
2017,09,02,15,29,27.90
2017,09,02,15,30,27.90
2017,09,02,15,31,27.90
2017,09,02,15,32,27.90
2017,09,02,15,33,27.90
2017,09,02,15,34,28.00
2017,09,02,15,35,28.10
2017,09,02,15,36,28.10
2017,09,02,15,37,28.10
2017,09,02,15,38,28.20
2017,09,02,15,39,28.20
2017,09,02,15,40,28.30
2017,09,02,15,41,28.50
2017,09,02,15,42,28.50
2017,09,02,15,43,28.50
2017,09,02,15,44,28.50
2017,09,02,15,45,28.40
2017,09,02,15,46,28.30
2017,09,02,15,47,28.20
2017,09,02,15,48,28.00
2017,09,02,15,49,27.90
2017,09,02,15,50,27.70
2017,09,02,15,51,27.60
2017,09,02,15,52,27.40
2017,09,02,15,53,27.40
2017,09,02,15,54,27.30
2017,09,02,15,55,27.30
2017,09,02,15,56,27.30
2017,09,02,15,57,27.30
2017,09,02,15,58,27.30
2017,09,02,15,59,27.30
2017,09,02,16,00,27.30
2017,09,02,16,01,27.30
2017,09,02,16,02,27.40
2017,09,02,16,03,27.50
2017,09,02,16,04,27.60
2017,09,02,16,05,27.70
2017,09,02,16,06,27.80
2017,09,02,16,07,27.90
2017,09,02,16,08,28.00
2017,09,02,16,09,28.00
2017,09,02,16,10,28.10
2017,09,02,16,11,28.00
2017,09,02,16,12,27.90
2017,09,02,16,13,27.90
2017,09,02,16,14,27.80
2017,09,02,16,15,27.70
2017,09,02,16,16,27.60
2017,09,02,16,17,27.60
2017,09,02,16,18,27.50
2017,09,02,16,19,27.50
2017,09,02,16,20,27.40
2017,09,02,16,21,27.40
2017,09,02,16,22,27.30
2017,09,02,16,23,27.30
2017,09,02,16,24,27.30
2017,09,02,16,25,27.30
2017,09,02,16,26,27.20
2017,09,02,16,27,27.20
2017,09,02,16,28,27.20
2017,09,02,16,29,27.20
2017,09,02,16,30,27.10
2017,09,02,16,31,27.10
2017,09,02,16,32,27.10
2017,09,02,16,33,27.10
2017,09,02,16,34,27.10
2017,09,02,16,35,27.10
2017,09,02,16,36,27.10
2017,09,02,16,37,27.10
2017,09,02,16,38,27.10
2017,09,02,16,39,27.20
2017,09,02,16,40,27.20
2017,09,02,16,41,27.20
2017,09,02,16,42,27.20
2017,09,02,16,43,27.30
2017,09,02,16,44,27.30
2017,09,02,16,45,27.30
2017,09,02,16,46,27.30
2017,09,02,16,47,27.40
2017,09,02,16,48,27.40
2017,09,02,16,49,27.40
2017,09,02,16,50,27.40
2017,09,02,16,51,27.50
2017,09,02,16,52,27.50
2017,09,02,16,53,27.40
2017,09,02,16,54,27.40
2017,09,02,16,55,27.40
2017,09,02,16,56,27.40
2017,09,02,16,57,27.40
2017,09,02,16,58,27.40
2017,09,02,16,59,27.40
2017,09,02,17,00,27.40
2017,09,02,17,01,27.40
2017,09,02,17,02,27.50
2017,09,02,17,03,27.50
2017,09,02,17,04,27.60
2017,09,02,17,05,27.60
2017,09,02,17,06,27.70
2017,09,02,17,07,27.70
2017,09,02,17,08,27.70
2017,09,02,17,09,27.70
2017,09,02,17,10,27.60
2017,09,02,17,11,27.60
2017,09,02,17,12,27.50
2017,09,02,17,13,27.40
2017,09,02,17,14,27.30
2017,09,02,17,15,27.10
2017,09,02,17,16,26.90
2017,09,02,17,17,26.70
2017,09,02,17,18,26.60
2017,09,02,17,19,26.60